Location: Bishop�s Knoyle
(51.0728°N, 2.1714°W)
Time: 17:01:22
(UTC+00:00)

BEESAT 2 - Pass Details

Date: 30 November 2021
Orbit: 498 x 514 km, 64.9° (Epoch: 17 January)

Event Time Altitude Azimuth Distance (km) Brightness Sun altitude
Exits shadow 05:26:02 17° 3° (N) 1,394 ? -21.5°
Maximum altitude 05:27:13 19° 26° (NNE) 1,303 ? -21.3°
Drops below altitude 10° 05:30:02 10° 71° (ENE) 1,751 ? -20.9°
Sets 05:32:44 0° 91° (E) 2,634 ? -20.5°
